Location: Unspecified
(10.5000°N, 0.0000°E)
Time: 12:09:02
(UTC+00:00)

ISS - Pass Details

Date: 24 April 2019
Orbit: 407 x 410 km, 51.6° (Epoch: 23 May)

Event Time Altitude Azimuth Distance (km) Brightness Sun altitude
Exits shadow 05:01:42 17° 271° (W) 1,133 -2.2 -11.2°
Maximum altitude 05:03:11 22° 308° (NW) 940 -2.3 -10.8°
Drops below altitude 10° 05:05:50 10° 2° (N) 1,465 -0.8 -10.2°
Sets 05:08:12 0° 18° (NNE) 2,326 0.5 -9.6°
